FENGYUN 1C DEB, 32086

Orbit data source: Space-Track

FENGYUN 1C DEB, 32086 is space debris in SSO originally from a launch on Mon, 10 May 1999 UTC launched from the Taiyaun Space Center, China (TSC). Fengyun 1C debris stems from the Chinese weather satellite Fengyun-1C, which was intentionally destroyed by a Chinese anti-satellite missile in 2007. This event dramatically increased the amount of space debris, with thousands of trackable fragments posing hazards to satellites and human spaceflight. The Fengyun 1C debris cloud has become a focal point in discussions about space sustainability and the need for international regulations to prevent the creation of new debris.

Loading next visibility...
Identifier
32086, 1999-025CQC
Orbit
SSO
Country
Flag of CNCN / PRC
Related business
Manufacturer
Unknown
Mission
Spacecraft
Bus & Motor
Unknown
Mass
Unknown
Launch date (UTC)
1999-05-10 (27 years ago)
Launch vehicle
Unknown
Launch site
Taiyaun Space Center, China (TSC)
Object type
Payload
Rocket body
Debris
Shape & HBR
Unknown shape, 0.1 m
Radar Cross Section
Small (<0.1 m²)

Expand to show TLE details & history
Last TLE update: 5 days ago

TLE from 5 days ago
0 FENGYUN 1C DEB
1 32086U 99025CQC 26145.86820828  .00001319  00000-0  11378-2 0  9990
2 32086  99.2616 199.7549 0298830  68.0440 295.2180 13.69641792640274
Epoch: 2026-05-25T20:50Z
TLE epoch observation values (Epoch: 2026-05-25T20:50:13.195Z)
Latitude
-0.00011°
Longitude
3.75011°
Altitude
915.215 km
Speed
7.439 km/s
True Right ascension
13h 19m 01s
True Declination
0° 00' 00"
Sunlit
Object was in full shadow at epoch
Visualization orbit readout
Latitude
Unknown
Longitude
Unknown
Altitude
Unknown
Speed
Unknown
Apparent Right ascension
Unknown
Apparent Declination
Unknown
Sunlit
N/A
Visualization observer readout
Local Sidereal Time
21:57:26
Azimuth
Unknown
Elevation
Unknown
Doppler factor
Unknown
Orbital elements
Apogee altitude
1,218.531 km
Perigee altitude
777.682 km
Semi-major axis
7,376.244 km
Eccentricity
0.02988
Inclination
99.2616°
RAAN
199.7549°
Arg. of periapsis
68.044°
True anomaly
292.07154°
Mean anomaly
295.218°
Eccentric anomaly
293.64963°
Mean motion
3.42602 °/min
Orbital period
105.08 mins
BSTAR
0.0011378
Loading maneuver chart data...
Computing Atmospheric mass density...
Loading historical data...
Loading historical data...
Loading historical data...
Loading historical data...
Loading historical data...
Loading historical data...
Loading historical data...

Documentation

Showing up to 5 results
|